KF5JED-13 Weather Reports


time (UTC)temp
C
wind
direction
speed
KPH
gust
KPH
rain 1hr
cm
rain 24hr
cm
rain mn
cm
humidity
%
barometer
mb
20260905193755 35 177 3.2 11.3 0.00 0.00 0.00 37 1016.0
20260905193249 35 180 12.9 25.7 0.00 0.00 0.00 36 1016.1
20260905192745 35 152 12.9 20.9 0.00 0.00 0.00 36 1016.1
20260905192242 35 136 12.9 27.4 0.00 0.00 0.00 35 1016.3
20260905191740 35 160 12.9 22.5 0.00 0.00 0.00 38 1016.3
20260905191239 35 161 12.9 24.1 0.00 0.00 0.00 38 1016.5
20260905190738 35 148 17.7 20.9 0.00 0.00 0.00 37 1016.5
20260905190237 35 163 22.5 32.2 0.00 0.00 0.00 37 1016.5
20260905185736 35 168 12.9 24.1 0.00 0.00 0.00 37 1016.5
20260905185230 35 174 9.7 20.9 0.00 0.00 0.00 37 1016.8
20260905184725 35 179 19.3 25.7 0.00 0.00 0.00 38 1016.6
20260905184224 35 147 17.7 22.5 0.00 0.00 0.00 40 1016.7
20260905183718 35 200 19.3 27.4 0.00 0.00 0.00 37 1016.8
20260905183214 35 202 17.7 27.4 0.00 0.00 0.00 37 1016.8
20260905182712 33 156 14.5 24.1 0.00 0.00 0.00 40 1016.8
20260905182207 34 163 17.7 22.5 0.00 0.00 0.00 39 1017.0
20260905181702 34 171 14.5 20.9 0.00 0.00 0.00 40 1016.8
20260905181201 33 174 12.9 20.9 0.00 0.00 0.00 41 1017.2
20260905180655 33 165 14.5 24.1 0.00 0.00 0.00 41 1017.0
20260905180151 33 161 14.5 25.7 0.00 0.00 0.00 42 1017.1
20260905175649 33 172 14.5 25.7 0.00 0.00 0.00 42 1017.2
20260905175145 33 164 20.9 22.5 0.00 0.00 0.00 42 1017.5
20260905174641 33 201 14.5 29.0 0.00 0.00 0.00 43 1017.3
20260905174136 33 199 17.7 20.9 0.00 0.00 0.00 44 1017.3
20260905173632 32 204 9.7 29.0 0.00 0.00 0.00 45 1017.3
20260905173128 32 159 17.7 27.4 0.00 0.00 0.00 44 1017.6
20260905172626 32 180 17.7 24.1 0.00 0.00 0.00 44 1017.5
20260905172121 32 173 17.7 29.0 0.00 0.00 0.00 45 1017.5
20260905171618 32 183 17.7 25.7 0.00 0.00 0.00 45 1017.5
20260905171113 32 218 24.1 29.0 0.00 0.00 0.00 46 1017.6
20260905170605 32 172 17.7 25.7 0.00 0.00 0.00 46 1017.6
20260905170059 32 150 20.9 25.7 0.00 0.00 0.00 46 1017.3
20260905165554 31 199 17.7 22.5 0.00 0.00 0.00 47 1017.7
20260905165043 31 181 19.3 25.7 0.00 0.00 0.00 48 1017.7
20260905164538 31 173 17.7 22.5 0.00 0.00 0.00 49 1017.6
20260905164033 31 166 16.1 22.5 0.00 0.00 0.00 49 1017.5
20260905163529 30 157 17.7 22.5 0.00 0.00 0.00 51 1017.6
20260905163025 30 157 12.9 27.4 0.00 0.00 0.00 50 1017.6
20260905162520 30 194 14.5 29.0 0.00 0.00 0.00 50 1017.3
20260905162014 30 191 20.9 22.5 0.00 0.00 0.00 52 1017.2
20260905161509 30 191 17.7 27.4 0.00 0.00 0.00 52 1017.3
20260905161006 29 171 11.3 24.1 0.00 0.00 0.00 55 1017.6
20260905160459 29 180 14.5 24.1 0.00 0.00 0.00 55 1017.5
20260905155954 29 175 14.5 24.1 0.00 0.00 0.00 56 1017.3
20260905155449 28 196 8.0 25.7 0.00 0.00 0.00 58 1017.6
20260905154947 28 194 17.7 24.1 0.00 0.00 0.00 58 1017.6
20260905154443 28 166 17.7 22.5 0.00 0.00 0.00 59 1017.3
20260905153938 27 193 12.9 22.5 0.00 0.00 0.00 61 1017.7
20260905153435 28 200 20.9 27.4 0.00 0.00 0.00 59 1017.7
20260905152933 27 168 14.5 29.0 0.00 0.00 0.00 61 1017.6
20260905152433 27 206 17.7 27.4 0.00 0.00 0.00 63 1017.5
20260905151928 26 203 16.1 24.1 0.00 0.00 0.00 64 1017.6
20260905151424 26 182 14.5 22.5 0.00 0.00 0.00 63 1017.5
20260905150919 26 195 19.3 24.1 0.00 0.00 0.00 64 1017.7
20260905150418 26 182 14.5 22.5 0.00 0.00 0.00 65 1017.7
20260905145915 26 163 17.7 20.9 0.00 0.00 0.00 65 1017.6
20260905145410 26 173 14.5 20.9 0.00 0.00 0.00 66 1017.7
20260905144909 26 195 19.3 24.1 0.00 0.00 0.00 66 1017.6
20260905144405 25 202 16.1 20.9 0.00 0.00 0.00 66 1017.7
20260905143903 25 160 12.9 19.3 0.00 0.00 0.00 67 1017.6
20260905143357 25 164 16.1 20.9 0.00 0.00 0.00 68 1017.7
20260905142852 25 161 16.1 20.9 0.00 0.00 0.00 68 1017.6
20260905142350 25 175 17.7 19.3 0.00 0.00 0.00 68 1017.7
20260905141847 24 149 12.9 17.7 0.00 0.00 0.00 69 1017.7
20260905141342 24 146 12.9 19.3 0.00 0.00 0.00 70 1017.6
20260905140837 23 147 9.7 19.3 0.00 0.00 0.00 71 1017.9
20260905140332 23 146 12.9 12.9 0.00 0.00 0.00 71 1017.8
20260905135830 23 137 8.0 16.1 0.00 0.00 0.00 72 1017.8
20260905135326 23 141 8.0 14.5 0.00 0.00 0.00 73 1017.7
20260905134821 23 131 12.9 19.3 0.00 0.00 0.00 73 1017.7
20260905134314 23 148 9.7 17.7 0.00 0.00 0.00 74 1017.5
20260905133809 22 141 11.3 14.5 0.00 0.00 0.00 74 1017.1
20260905133305 22 145 9.7 16.1 0.00 0.00 0.00 75 1017.0
20260905132803 22 136 14.5 20.9 0.00 0.00 0.00 75 1017.3
20260905132259 22 153 9.7 20.9 0.00 0.00 0.00 76 1017.0
20260905131754 22 137 12.9 24.1 0.00 0.00 0.00 77 1017.1
20260905131249 22 130 14.5 19.3 0.00 0.00 0.00 77 1017.0
20260905130743 22 125 14.5 17.7 0.00 0.00 0.00 77 1017.0
20260905130237 21 137 12.9 20.9 0.00 0.00 0.00 77 1016.8
20260905125733 21 140 14.5 19.3 0.00 0.00 0.00 78 1016.6
20260905125228 21 144 14.5 20.9 0.00 0.00 0.00 78 1016.9
20260905124725 21 129 14.5 20.9 0.00 0.00 0.00 78 1016.8
20260905124220 21 133 8.0 12.9 0.00 0.00 0.00 80 1017.1
20260905123714 21 135 9.7 17.7 0.00 0.00 0.00 78 1016.7
20260905123212 22 146 12.9 20.9 0.00 0.00 0.00 77 1016.3
20260905122711 21 163 11.3 19.3 0.00 0.00 0.00 78 1016.7
20260905122205 22 152 14.5 19.3 0.00 0.00 0.00 77 1016.3
20260905121700 22 156 16.1 19.3 0.00 0.00 0.00 77 1016.6
20260905121156 21 148 11.3 16.1 0.00 0.00 0.00 78 1016.3
20260905120655 21 128 11.3 17.7 0.00 0.00 0.00 78 1016.3
20260905120149 22 141 8.0 12.9 0.00 0.00 0.00 77 1016.6
20260905115644 22 134 6.4 17.7 0.00 0.00 0.00 76 1016.5
20260905115139 22 145 12.9 14.5 0.00 0.00 0.00 76 1016.5
20260905114639 22 143 8.0 14.5 0.00 0.00 0.00 76 1016.5
20260905114137 22 131 9.7 14.5 0.00 0.00 0.00 77 1016.5
20260905113632 21 134 8.0 16.1 0.00 0.00 0.00 78 1016.6
20260905113127 21 136 9.7 11.3 0.00 0.00 0.00 80 1016.6
20260905112621 20 89 9.7 16.1 0.00 0.00 0.00 82 1016.6
20260905112117 20 105 12.9 16.1 0.00 0.00 0.00 82 1016.5
20260905111612 20 98 6.4 6.4 0.00 0.00 0.00 83 1016.5
20260905111111 20 35 0.0 0.0 0.00 0.00 0.00 84 1016.2
20260905110610 20 98 0.0 0.0 0.00 0.00 0.00 83 1016.2
20260905110106 20 80 0.0 1.6 0.00 0.00 0.00 83 1016.1
20260905105601 20 164 0.0 0.0 0.00 0.00 0.00 83 1016.1
20260905105100 20 155 0.0 4.8 0.00 0.00 0.00 83 1015.9
20260905104556 20 150 4.8 6.4 0.00 0.00 0.00 83 1015.9
20260905104055 20 166 4.8 6.4 0.00 0.00 0.00 82 1015.7
20260905103550 21 177 3.2 6.4 0.00 0.00 0.00 82 1015.8
20260905103047 21 181 6.4 6.4 0.00 0.00 0.00 82 1015.9
20260905102542 21 165 6.4 8.0 0.00 0.00 0.00 82 1015.8
20260905102039 20 157 6.4 6.4 0.00 0.00 0.00 82 1015.9
20260905101537 21 187 4.8 6.4 0.00 0.00 0.00 81 1016.0
20260905101035 21 182 4.8 6.4 0.00 0.00 0.00 81 1016.0
20260905100532 21 180 3.2 6.4 0.00 0.00 0.00 80 1016.0
20260905100032 21 160 6.4 6.4 0.00 0.00 0.00 79 1016.0
20260905095526 21 184 4.8 9.7 0.00 0.00 0.00 79 1015.9
20260905095021 21 175 6.4 6.4 0.00 0.00 0.00 79 1016.0
20260905094516 21 165 8.0 9.7 0.00 0.00 0.00 79 1016.1
20260905094015 21 171 4.8 8.0 0.00 0.00 0.00 80 1016.1
20260905093510 20 173 4.8 6.4 0.00 0.00 0.00 81 1016.3
20260905093006 20 186 3.2 4.8 0.00 0.00 0.00 81 1016.3
20260905092501 20 161 3.2 6.4 0.00 0.00 0.00 81 1016.3
20260905091951 20 162 3.2 4.8 0.00 0.00 0.00 80 1016.2
20260905091451 21 161 4.8 6.4 0.00 0.00 0.00 80 1016.2
20260905090950 21 180 4.8 6.4 0.00 0.00 0.00 80 1016.5
20260905090445 21 163 6.4 8.0 0.00 0.00 0.00 79 1016.1
20260905085944 21 164 4.8 6.4 0.00 0.00 0.00 78 1016.3
20260905085444 21 162 6.4 6.4 0.00 0.00 0.00 77 1016.2
20260905084940 22 165 6.4 8.0 0.00 0.00 0.00 75 1016.3
20260905084439 22 181 6.4 9.7 0.00 0.00 0.00 74 1016.2
20260905083934 22 178 6.4 9.7 0.00 0.00 0.00 74 1016.5
20260905083430 22 165 6.4 12.9 0.00 0.00 0.00 73 1016.2
20260905082925 22 166 8.0 11.3 0.00 0.00 0.00 72 1016.2
20260905082421 22 180 9.7 14.5 0.00 0.00 0.00 71 1016.1
20260905081916 23 184 11.3 12.9 0.00 0.00 0.00 70 1016.2
20260905081411 23 174 8.0 16.1 0.00 0.00 0.00 70 1016.3
20260905080910 23 172 9.7 16.1 0.00 0.00 0.00 69 1016.3
20260905080409 23 177 9.7 16.1 0.00 0.00 0.00 69 1016.1
20260905075909 23 180 9.7 17.7 0.00 0.00 0.00 68 1016.2
20260905075404 23 163 12.9 16.1 0.00 0.00 0.00 69 1016.2
20260905074903 23 177 11.3 16.1 0.00 0.00 0.00 69 1016.2
20260905074359 23 183 8.0 12.9 0.00 0.00 0.00 69 1016.2
20260905073854 23 191 11.3 16.1 0.00 0.00 0.00 69 1016.2
20260905073349 23 181 9.7 17.7 0.00 0.00 0.00 68 1016.3
20260905072844 23 175 9.7 14.5 0.00 0.00 0.00 69 1016.5
20260905072339 23 195 8.0 12.9 0.00 0.00 0.00 70 1016.6
20260905071835 23 194 9.7 11.3 0.00 0.00 0.00 71 1016.5
20260905071332 23 175 9.7 11.3 0.00 0.00 0.00 70 1016.7
20260905070831 23 179 9.7 12.9 0.00 0.00 0.00 70 1016.7
20260905070328 23 191 9.7 9.7 0.00 0.00 0.00 70 1016.7
20260905065826 23 195 12.9 12.9 0.00 0.00 0.00 69 1016.7
20260905065325 23 209 8.0 9.7 0.00 0.00 0.00 69 1016.9
20260905064820 23 187 6.4 9.7 0.00 0.00 0.00 70 1016.7
20260905064317 23 205 11.3 11.3 0.00 0.00 0.00 68 1016.8
20260905063815 23 197 11.3 12.9 0.00 0.00 0.00 68 1016.7
20260905063311 23 188 9.7 12.9 0.00 0.00 0.00 67 1016.8
20260905062807 23 189 6.4 9.7 0.00 0.00 0.00 67 1016.8
20260905062307 24 188 9.7 11.3 0.00 0.00 0.00 66 1016.7
20260905061802 25 178 11.3 14.5 0.00 0.00 0.00 64 1016.8
20260905061256 25 202 8.0 17.7 0.00 0.00 0.00 63 1016.9
20260905060756 25 206 9.7 12.9 0.00 0.00 0.00 64 1016.8
20260905060253 25 194 11.3 16.1 0.00 0.00 0.00 63 1016.7
20260905055751 25 188 9.7 17.7 0.00 0.00 0.00 63 1016.7
20260905055246 25 182 8.0 14.5 0.00 0.00 0.00 62 1016.6
20260905054741 26 182 11.3 19.3 0.00 0.00 0.00 60 1016.3
20260905054238 26 180 6.4 19.3 0.00 0.00 0.00 61 1016.5
20260905053737 25 167 12.9 14.5 0.00 0.00 0.00 61 1016.6
20260905053233 25 167 16.1 16.1 0.00 0.00 0.00 61 1016.3
20260905052732 26 180 6.4 14.5 0.00 0.00 0.00 60 1016.6
20260905052227 26 167 6.4 9.7 0.00 0.00 0.00 60 1016.6
20260905051726 26 184 6.4 9.7 0.00 0.00 0.00 59 1016.5
20260905051223 26 218 6.4 6.4 0.00 0.00 0.00 60 1016.6
20260905050720 26 254 3.2 3.2 0.00 0.00 0.00 60 1016.8
20260905050216 26 321 4.8 4.8 0.00 0.00 0.00 60 1016.6
20260905045715 26 333 1.6 4.8 0.00 0.00 0.00 61 1016.8
20260905045211 26 299 4.8 4.8 0.00 0.00 0.00 60 1016.6
20260905044706 26 346 3.2 4.8 0.00 0.00 0.00 60 1016.5
20260905044202 26 89 0.0 4.8 0.00 0.00 0.00 58 1016.5
20260905043700 26 94 0.0 8.0 0.00 0.00 0.00 57 1016.3
20260905043155 27 136 4.8 9.7 0.00 0.00 0.00 57 1016.5
20260905042654 26 155 9.7 11.3 0.00 0.00 0.00 57 1016.5
20260905042148 26 156 8.0 16.1 0.00 0.00 0.00 58 1016.1
20260905041644 26 162 9.7 12.9 0.00 0.00 0.00 58 1016.5
20260905041139 26 163 11.3 14.5 0.00 0.00 0.00 58 1016.2
20260905040634 27 173 9.7 16.1 0.00 0.00 0.00 58 1016.3
20260905040133 27 166 11.3 14.5 0.00 0.00 0.00 56 1016.2
20260905035628 27 166 12.9 19.3 0.00 0.00 0.00 55 1016.1
20260905035125 27 170 16.1 19.3 0.00 0.00 0.00 54 1016.2
20260905034621 28 159 14.5 24.1 0.00 0.00 0.00 53 1016.2
20260905034119 28 164 19.3 25.7 0.00 0.00 0.00 52 1016.2
20260905033614 28 165 17.7 25.7 0.00 0.00 0.00 51 1016.0
20260905033110 28 160 19.3 29.0 0.00 0.00 0.00 49 1016.1
20260905032609 28 157 17.7 32.2 0.00 0.00 0.00 48 1015.9
20260905032109 29 162 24.1 29.0 0.00 0.00 0.00 46 1015.7
20260905031605 29 155 24.1 27.4 0.00 0.00 0.00 45 1015.8
20260905031105 29 152 20.9 27.4 0.00 0.00 0.00 45 1015.6
20260905030600 30 157 16.1 27.4 0.00 0.00 0.00 42 1015.6
20260905030055 31 162 14.5 20.9 0.00 0.00 0.00 38 1015.5
20260905025550 30 154 24.1 25.7 0.00 0.00 0.00 39 1015.3
20260905025041 31 152 20.9 27.4 0.00 0.00 0.00 38 1015.1
20260905024536 31 156 19.3 24.1 0.00 0.00 0.00 38 1015.1
20260905024031 31 155 11.3 25.7 0.00 0.00 0.00 39 1015.1
20260905023526 30 161 12.9 20.9 0.00 0.00 0.00 40 1015.1
20260905023021 30 155 11.3 20.9 0.00 0.00 0.00 41 1014.9
20260905022520 31 145 12.9 20.9 0.00 0.00 0.00 39 1014.8
20260905022016 31 137 17.7 24.1 0.00 0.00 0.00 39 1014.6
20260905021515 31 137 11.3 19.3 0.00 0.00 0.00 40 1014.7
20260905021010 31 147 11.3 20.9 0.00 0.00 0.00 39 1014.6
20260905020505 31 141 9.7 14.5 0.00 0.00 0.00 40 1014.9
20260905020000 31 140 6.4 12.9 0.00 0.00 0.00 40 1014.7
20260905015458 31 100 4.8 14.5 0.00 0.00 0.00 39 1014.3
20260905014958 31 109 8.0 16.1 0.00 0.00 0.00 40 1014.7
20260905014453 31 125 6.4 12.9 0.00 0.00 0.00 41 1014.5
20260905013948 31 113 6.4 9.7 0.00 0.00 0.00 41 1014.6
20260905013444 31 147 8.0 11.3 0.00 0.00 0.00 41 1014.5
20260905012939 31 87 1.6 11.3 0.00 0.00 0.00 41 1014.6
20260905012434 31 132 3.2 8.0 0.00 0.00 0.00 42 1014.3
20260905011931 31 101 6.4 6.4 0.00 0.00 0.00 42 1014.6
20260905011427 31 103 3.2 6.4 0.00 0.00 0.00 42 1014.5
20260905010922 31 109 3.2 6.4 0.00 0.00 0.00 41 1014.3
20260905010417 31 119 6.4 6.4 0.00 0.00 0.00 40 1014.2
20260905005913 32 126 3.2 6.4 0.00 0.00 0.00 40 1014.1
20260905005409 32 97 6.4 9.7 0.00 0.00 0.00 39 1014.2
20260905004903 32 95 3.2 8.0 0.00 0.00 0.00 39 1014.3
20260905004403 32 108 3.2 8.0 0.00 0.00 0.00 38 1014.1
20260905003858 32 154 6.4 8.0 0.00 0.00 0.00 38 1014.1
20260905003355 32 138 8.0 11.3 0.00 0.00 0.00 37 1014.0
20260905002851 33 123 3.2 9.7 0.00 0.00 0.00 36 1014.0
20260905002349 33 74 3.2 9.7 0.00 0.00 0.00 35 1014.2
20260905001844 33 148 9.7 12.9 0.00 0.00 0.00 35 1014.0
20260905001339 33 106 6.4 11.3 0.00 0.00 0.00 33 1014.0
20260905000834 33 135 4.8 11.3 0.00 0.00 0.00 34 1014.1
20260905000330 33 112 4.8 16.1 0.00 0.00 0.00 33 1013.8
20260904235825 34 107 8.0 12.9 0.00 0.00 0.00 32 1013.9
20260904235320 34 96 11.3 16.1 0.00 0.00 0.00 31 1013.9
20260904234814 34 106 9.7 17.7 0.00 0.00 0.00 31 1014.0
20260904234309 35 124 6.4 16.1 0.00 0.00 0.00 30 1013.8
20260904233805 35 152 6.4 19.3 0.00 0.00 0.00 30 1013.6
20260904233255 35 146 9.7 17.7 0.00 0.00 0.00 31 1013.6
20260904232751 35 131 8.0 14.5 0.00 0.00 0.00 32 1013.7
20260904232248 35 144 12.9 22.5 0.00 0.00 0.00 31 1013.5
20260904231743 35 150 12.9 20.9 0.00 0.00 0.00 29 1013.6
20260904231233 36 144 11.3 14.5 0.00 0.00 0.00 29 1013.6
20260904230732 36 166 16.1 20.9 0.00 0.00 0.00 28 1013.6
20260904230226 36 150 14.5 19.3 0.00 0.00 0.00 28 1013.3
20260904225726 36 160 14.5 20.9 0.00 0.00 0.00 28 1013.2
20260904225220 35 150 8.0 24.1 0.00 0.00 0.00 29 1013.2
20260904224719 35 128 4.8 19.3 0.00 0.00 0.00 29 1013.2
20260904224215 35 150 12.9 14.5 0.00 0.00 0.00 31 1013.6
20260904223713 35 135 11.3 17.7 0.00 0.00 0.00 29 1013.6
20260904223209 35 138 17.7 20.9 0.00 0.00 0.00 29 1013.6
20260904222704 35 132 6.4 24.1 0.00 0.00 0.00 30 1013.5
20260904222200 36 111 9.7 14.5 0.00 0.00 0.00 28 1013.6
20260904221659 36 118 6.4 19.3 0.00 0.00 0.00 29 1013.6
20260904221154 36 166 9.7 20.9 0.00 0.00 0.00 28 1013.5
20260904220649 36 154 20.9 22.5 0.00 0.00 0.00 28 1013.6
20260904220144 36 143 14.5 27.4 0.00 0.00 0.00 28 1013.8
20260904215638 36 157 9.7 24.1 0.00 0.00 0.00 28 1013.9
20260904215135 36 133 14.5 17.7 0.00 0.00 0.00 29 1013.9
20260904214635 36 149 14.5 20.9 0.00 0.00 0.00 29 1014.0
20260904214131 36 147 11.3 29.0 0.00 0.00 0.00 30 1014.2
20260904213628 36 160 19.3 30.6 0.00 0.00 0.00 30 1013.8
20260904213125 36 145 20.9 30.6 0.00 0.00 0.00 29 1014.1
20260904212620 35 146 14.5 25.7 0.00 0.00 0.00 30 1013.9
20260904212115 35 118 19.3 25.7 0.00 0.00 0.00 31 1014.0
20260904211614 35 134 20.9 27.4 0.00 0.00 0.00 31 1014.1
20260904211109 35 151 20.9 27.4 0.00 0.00 0.00 32 1014.2
20260904210604 35 153 11.3 19.3 0.00 0.00 0.00 32 1014.1
20260904210100 35 145 17.7 20.9 0.00 0.00 0.00 32 1014.1
20260904205555 34 127 14.5 27.4 0.00 0.00 0.00 33 1014.5
20260904205051 35 152 17.7 33.8 0.00 0.00 0.00 32 1014.3
20260904204547 37 163 16.1 24.1 0.00 0.00 0.00 28 1014.2
20260904204043 37 182 16.1 30.6 0.00 0.00 0.00 28 1014.2
20260904203539 36 160 17.7 29.0 0.00 0.00 0.00 29 1014.2
20260904203035 37 156 25.7 27.4 0.00 0.00 0.00 29 1014.3
20260904202530 36 195 9.7 17.7 0.00 0.00 0.00 29 1014.6
20260904202026 36 169 8.0 17.7 0.00 0.00 0.00 30 1014.5
20260904201522 37 197 14.5 19.3 0.00 0.00 0.00 29 1014.7
20260904201017 36 186 9.7 14.5 0.00 0.00 0.00 29 1014.6
20260904200515 35 230 9.7 16.1 0.00 0.00 0.00 30 1014.8
20260904200011 37 203 11.3 25.7 0.00 0.00 0.00 27 1014.8
20260904195508 37 203 16.1 19.3 0.00 0.00 0.00 28 1014.9
20260904195008 37 175 25.7 29.0 0.00 0.00 0.00 29 1014.8
20260904194503 36 149 8.0 9.7 0.00 0.00 0.00 30 1014.9